This is the latest recevied weather packets stored in our database for station/object DL8BGD. If no packets are shown the sender has not sent any weather packets the latest 10 day(s).
| Time | Temp. | Humidity | Pressure | Rain* | Wind** | Luminosity | Snow |
|---|---|---|---|---|---|---|---|
| 1777837458 | 16.11° C | 53% | 1016.4 hPa | 0 mm | - | - | - |
| 1777836858 | 16.11° C | 51% | 1016.3 hPa | 0 mm | - | - | - |
| 1777836257 | 16.67° C | 51% | 1016.3 hPa | 0 mm | - | - | - |
| 1777835657 | 16.67° C | 51% | 1016.1 hPa | 0 mm | - | - | - |
| 1777835057 | 17.22° C | 50% | 1016.1 hPa | 0 mm | - | - | - |
| 1777834456 | 17.78° C | 50% | 1016 hPa | 0 mm | - | - | - |
| 1777833853 | 17.78° C | 49% | 1015.9 hPa | 0 mm | - | - | - |
| 1777833252 | 18.33° C | 47% | 1015.8 hPa | 0 mm | - | - | - |
| 1777832652 | 18.89° C | 47% | 1015.7 hPa | 0 mm | - | - | - |
| 1777832049 | 19.44° C | 45% | 1015.6 hPa | 0 mm | - | - | - |
| 1777831449 | 19.44° C | 45% | 1015.5 hPa | 0 mm | - | - | - |
| 1777830849 | 20.56° C | 44% | 1015.5 hPa | 0 mm | - | - | - |
| 1777830248 | 20.56° C | 41% | 1015.3 hPa | 0 mm | - | - | - |
| 1777829648 | 21.11° C | 40% | 1015.2 hPa | 0 mm | - | - | - |
| 1777829048 | 21.67° C | 37% | 1015.2 hPa | 0 mm | - | - | - |
| 1777828447 | 22.22° C | 35% | 1015.1 hPa | 0 mm | - | - | - |
| 1777827846 | 22.78° C | 32% | 1015 hPa | 0 mm | - | - | - |
| 1777827246 | 23.89° C | 28% | 1014.8 hPa | 0 mm | - | - | - |
| 1777826646 | 24.44° C | 27% | 1014.8 hPa | 0 mm | - | - | - |
| 1777826045 | 25° C | 25% | 1014.7 hPa | 0 mm | - | - | - |
| 1777825445 | 25° C | 26% | 1014.7 hPa | 0 mm | - | - | - |
| 1777824845 | 25° C | 23% | 1014.6 hPa | 0 mm | - | - | - |
| 1777824244 | 25.56° C | 21% | 1014.6 hPa | 0 mm | - | - | - |
| 1777823644 | 26.11° C | 22% | 1014.5 hPa | 0 mm | - | - | - |
| 1777823043 | 26.67° C | 23% | 1014.5 hPa | 0 mm | - | - | - |
* Rain since midnight (hover to see other rain measurements)
** Current wind speed in m/s (hover to see current wind gust speed)